Location: Brno
(49.2000°N, 16.6330°E)
Time: 04:35:13
(UTC+02:00)

RESURS DK-1 - Visible Passes

Search period start: 29 July 2014 00:00
Search period end: 08 August 2014 00:00
Orbit: 561 x 568 km, 69.9° (Epoch: 28 July)

Date Brightness Start Highest point End Pass type
(mag) Time Alt. Az. Time Alt. Az. Time Alt. Az.
29 Jul 5.6 01:31:07 10° NW 01:31:42 10° NNW 01:32:16 10° NNW visible
29 Jul 3.3 22:12:24 19° SSE 22:14:29 29° ESE 22:18:06 10° NE visible
29 Jul 3.9 23:48:42 10° WSW 23:52:33 36° NW 23:56:26 10° NNE visible
30 Jul 2.9 22:11:03 13° S 22:14:24 39° ESE 22:18:18 10° NE visible
30 Jul 4.4 23:49:02 10° WSW 23:52:40 28° NW 23:56:18 10° NNE visible
31 Jul 2.5 22:10:18 10° S 22:14:21 53° ESE 22:18:26 10° NE visible
31 Jul 4.8 23:49:28 10° W 23:52:48 23° NW 23:56:08 10° N visible
01 Aug 2.3 22:10:10 10° SSW 22:14:19 73° ESE 22:18:30 10° NNE visible
01 Aug 5.2 23:50:01 10° W 23:52:58 18° NW 23:55:55 10° N visible
02 Aug 2.4 22:10:09 10° SSW 22:14:19 84° WNW 22:18:31 10° NNE visible
02 Aug 5.4 23:50:42 10° WNW 23:53:09 15° NW 23:55:38 10° N visible
03 Aug 5.7 04:52:17 10° N 04:54:18 13° NE 04:56:20 10° ENE visible
03 Aug 2.9 22:10:13 10° SW 22:14:21 62° WNW 22:18:30 10° NNE visible
03 Aug 5.6 23:51:34 10° WNW 23:53:23 12° NW 23:55:11 10° N visible
04 Aug 5.6 04:51:54 10° N 04:54:31 16° NE 04:57:08 10° E visible
04 Aug 3.5 22:10:22 10° SW 22:14:24 47° NW 22:18:27 10° NNE visible
04 Aug 5.9 23:53:00 10° NW 23:53:37 10° NNW 23:54:15 10° NNW visible
05 Aug 5.5 04:51:38 10° N 04:54:42 20° NE 04:57:45 10° E visible
05 Aug 4.1 22:10:37 10° WSW 22:14:29 36° NW 22:18:22 10° NNE visible
06 Aug 5.2 04:51:25 10° N 04:54:51 24° NE 04:58:16 10° ESE visible
06 Aug 4.6 22:10:57 10° WSW 22:14:35 28° NW 22:18:14 10° NNE visible
07 Aug 4.7 04:51:16 10° NNW 04:54:59 30° NE 04:58:40 10° ESE visible
07 Aug 5.1 22:11:23 10° W 22:14:43 23° NW 22:18:04 10° N visible
